Regional Weather Roundup
Issued by NWS

Home | Current Version | Previous Version | Text Only | Print | Product List | Glossary Off
Versions: 1 2 3 4 5 6 7 8 9 10 11 12 13 14 15 16 17 18 19 20 21 22 23 24 25 26 27 28 29 30 31 32 33 34 35 36 37 38 39 40 41 42 43 44 45 46 47 48 49 50

000
ASUS43 KLMK 100402
RWRKY
KENTUCKY REGIONAL WEATHER ROUNDUP
NATIONAL WEATHER SERVICE LOUISVILLE KY
1100 PM EST FRI DEC 09 2016

NOTE "FAIR" INDICATES FEW OR NO CLOUDS BELOW 12,000 FEET
WITH NO SIGNIFICANT WEATHER AND/OR OBSTRUCTIONS TO VISIBILITY.

KYZ001>023-026-027-061>063-070>075-100500-
WESTERN AND SOUTH CENTRAL KENTUCKY

CITY           SKY/WX    TMP DP  RH WIND       PRES   REMARKS
PADUCAH        CLEAR     19  14  81 CALM      30.59R
HENDERSON      CLEAR     18  12  79 CALM      30.59S
OWENSBORO      CLEAR     21  18  88 SW3       30.60R
HOPKINSVILLE   CLEAR     25  15  67 NE3       30.58R
BOWLING GREEN  CLEAR     21  15  78 CALM      30.60R
GLASGOW        NOT AVBL
$$

KYZ024-025-028>034-038-045-046-053-100500-
NORTH CENTRAL KENTUCKY

CITY           SKY/WX    TMP DP  RH WIND       PRES   REMARKS
LOUISVILLE/SDF MOCLDY    25  12  58 W3        30.57R
LOUISVILLE/LOU MOCLDY    25  13  60 CALM      30.57R
FORT KNOX      CLOUDY    19  14  81 CALM      30.54S
$$

KYZ035>037-039>044-047>052-055>060-089>105-100500-
NORTHEAST KENTUCKY

CITY           SKY/WX    TMP DP  RH WIND       PRES   REMARKS
LEXINGTON      CLOUDY    22  12  65 NE5       30.53S WCI  16
COVINGTON      MOCLDY    22  14  71 CALM      30.51S
FRANKFORT      PTCLDY    22  12  65 CALM      30.54R
$$

KYZ054-064>069-076>088-106>120-100500-
SOUTHEAST KENTUCKY

CITY           SKY/WX    TMP DP  RH WIND       PRES   REMARKS
JACKSON        CLOUDY    21  14  74 CALM      30.51S
LONDON         CLEAR     19  13  77 CALM      30.52S
SOMERSET       PTCLDY    19  14  79 CALM      30.57R
MIDDLESBORO    CLEAR     20  17  88 CALM      30.54R
MONTICELLO     CLEAR     12   9  87 W7        30.57R WCI   1
$$




USA.gov is the U.S. government's official web portal to all federal, state and local government web resources and services.